Location: Newark
(43.4306°N, 0.3089°E)
Time: 01:00:06
(UTC+00:00)

Transit 2A Rocket - Pass Details

Date: 25 August 2019
Orbit: 592 x 911 km, 66.7° (Epoch: 19 September)

Event Time Altitude Azimuth Distance (km) Brightness Sun altitude
Rises 04:36:27 0° 314° (NW) 2,956 7.8 -7.3°
Reaches altitude 10° 04:39:23 10° 295° (WNW) 1,996 6.8 -6.8°
Maximum altitude 04:42:22 18° 253° (WSW) 1,509 5.9 -6.3°
Drops below altitude 10° 04:45:16 10° 210° (SSW) 1,928 6.6 -5.9°
Sets 04:48:03 0° 191° (S) 2,813 7.6 -5.4°
